Ketchikan, AK

2:18 PM AKDT on July 22, 2018 (GMT -0800)
Ketchikan International

Weather History for PAKT - July, 2018

Change the Weather History Date:

Wednesday, July 18, 2018

  Actual Average Record
Temperature  
Mean Temperature 60 °F -  
Max Temperature 64 °F 67 °F 80 °F (1981)
Min Temperature 55 °F 51 °F 42 °F (1968)
Degree Days  
Heating Degree Days 6    
Growing Degree Days 10 (Base 50)    
Moisture  
Dew Point 50 °F    
Average Humidity 73    
Maximum Humidity 87    
Minimum Humidity 52    
Precipitation  
Precipitation 0.00 in - - ()
Sea Level Pressure  
Sea Level Pressure 30.18 in    
Wind  
Wind Speed 8 mph (NNW)    
Max Wind Speed 14 mph    
Max Gust Speed -    
Visibility 10 miles    
Events      
Averages and records for this station are not official NWS values.
T = Trace of Precipitation, MM = Missing Value Source: NWS Daily Summary

Daily Weather History Graph

Daily Weather History Graph

Search for Another Location

Airport or City:

Astronomy

Jul. 18, 2018 Rise Set
Actual Time 4:30 AM AKDT 9:14 PM AKDT
Civil Twilight 3:38 AM AKDT 10:06 PM AKDT
Nautical Twilight 2:07 AM AKDT 11:34 PM AKDT
Astronomical Twilight Sun does not set Sun does not set
Moon 12:06 PM AKDT (7/18) No Moon Set
Length of Visible Light 18h 28m
Length of Day
16h 43m
Waxing Crescent, 40% of the Moon is Illuminated
Jul 18
Waxing Crescent
Jul 19
First Quarter
Jul 27
Full
Aug 4
Last Quarter
Aug 11
New

Hourly Weather History & Observations

Time (AKDT) Temp. Dew Point Humidity Pressure Visibility Wind Dir Wind Speed Gust Speed Precip Events Conditions
12:19 AM 57.0 °F 53.1 °F 87% 30.08 in 10.0 mi North 8.1 mph - N/A   Overcast
12:53 AM 55.9 °F 52.0 °F 87% 30.10 in 10.0 mi North 9.2 mph - N/A   Overcast
1:53 AM 55.9 °F 52.0 °F 87% 30.11 in 10.0 mi North 5.8 mph - N/A   Overcast
2:53 AM 55.9 °F 51.1 °F 84% 30.13 in 10.0 mi North 6.9 mph - N/A   Overcast
3:53 AM 55.9 °F 50.0 °F 80% 30.14 in 10.0 mi North 10.4 mph - N/A   Overcast
4:28 AM 55.9 °F 50.0 °F 80% 30.14 in 10.0 mi North 9.2 mph - N/A   Overcast
4:53 AM 55.9 °F 50.0 °F 80% 30.14 in 10.0 mi North 6.9 mph - N/A   Overcast
5:53 AM 55.9 °F 50.0 °F 80% 30.16 in 10.0 mi North 5.8 mph - N/A   Overcast
6:10 AM 55.4 °F 48.2 °F 77% 30.16 in 10.0 mi North 6.9 mph - N/A   Overcast
6:53 AM 55.4 °F 48.2 °F 77% 30.17 in 10.0 mi North 9.2 mph - N/A   Overcast
7:53 AM 57.2 °F 50.0 °F 77% 30.18 in 10.0 mi North 8.1 mph - N/A   Mostly Cloudy
8:53 AM 60.8 °F 50.0 °F 68% 30.19 in 10.0 mi NNW 11.5 mph - N/A   Mostly Cloudy
9:53 AM 60.8 °F 48.2 °F 63% 30.19 in 10.0 mi North 8.1 mph - N/A   Scattered Clouds
10:53 AM 60.8 °F 48.2 °F 63% 30.20 in 10.0 mi North 5.8 mph - N/A   Overcast
11:53 AM 64.4 °F 46.4 °F 52% 30.21 in 10.0 mi NNW 9.2 mph - N/A   Scattered Clouds
12:53 PM 62.6 °F 48.2 °F 59% 30.22 in 10.0 mi NNW 10.4 mph - N/A   Overcast
1:53 PM 62.6 °F 50.0 °F 63% 30.22 in 10.0 mi NNW 13.8 mph - N/A   Overcast
2:53 PM 62.6 °F 50.0 °F 63% 30.22 in 10.0 mi North 12.7 mph - N/A   Overcast
3:53 PM 62.1 °F 48.9 °F 62% 30.22 in 10.0 mi North 9.2 mph - N/A   Mostly Cloudy
4:53 PM 62.6 °F 48.2 °F 59% 30.22 in 10.0 mi NNW 10.4 mph - N/A   Overcast
5:53 PM 62.6 °F 48.2 °F 59% 30.22 in 10.0 mi North 9.2 mph - N/A   Overcast
6:53 PM 60.8 °F 50.0 °F 68% 30.22 in 10.0 mi NNW 10.4 mph - N/A   Overcast
7:53 PM 59.0 °F 51.8 °F 77% 30.22 in 10.0 mi NNW 6.9 mph - N/A   Overcast
8:53 PM 57.2 °F 51.8 °F 82% 30.22 in 10.0 mi NNW 4.6 mph - N/A   Overcast
9:53 PM 57.9 °F 50.0 °F 75% 30.22 in 10.0 mi NW 5.8 mph - N/A   Overcast
10:53 PM 57.0 °F 48.9 °F 74% 30.22 in 10.0 mi WNW 5.8 mph - N/A   Overcast
11:53 PM 57.0 °F 50.0 °F 77% 30.21 in 10.0 mi NW 4.6 mph - N/A   Overcast